Location: Oakhurst
(33.6448°N, 111.9543°W)
Time: 15:35:26
(UTC+00:00)

ITAMSAT 1 - Visible Passes

Search period start: 03 August 2021 00:00
Search period end: 13 August 2021 00:00
Orbit: 784 x 796 km, 98.9° (Epoch: 03 August)

Date Brightness Start Highest point End Pass type
(mag) Time Alt. Az. Time Alt. Az. Time Alt. Az.
04 Aug 10.4 03:02:35 10° SW 03:05:42 16° W 03:08:50 10° WNW visible
07 Aug 10.7 03:14:48 10° WSW 03:16:48 12° W 03:18:48 10° WNW visible
08 Aug 10.1 02:42:50 10° SSW 02:47:04 25° W 02:51:21 10° NW visible
11 Aug 10.3 02:54:25 10° SW 02:58:08 20° W 03:01:52 10° NW visible
